This demonstration page uses our WeatherBlox Daily Observations layout. Learn more.

Left ArrowRight Arrow

39.12711, -84.51439

Hourly Observations for June 17, 2016

Temp ( °F °C ) Dew Point ( °F °C ) Humidity (%) Winds ( mph kmh ) Pressure ( in mb ) Visibility ( mi km ) Precip ( " mm )
12:53 am 00:53 Cloudy 71 21.7 62 16.7 73 73 NNW 12 19 29.83 1010 10 16 N/A
1:12 am 01:12 Cloudy 70 21.1 62 16.7 76 76 NNW 9 15 29.83 1010 10 16 N/A
1:53 am 01:53 Cloudy 70 21.1 62 16.7 76 76 N 10 17 29.84 1010 10 16 N/A
2:53 am 02:53 Cloudy 69 20.6 62 16.7 78 78 N 12 19 29.84 1011 10 16 N/A
3:53 am 03:53 Cloudy 68 20 62 16.7 81 81 N 9 15 29.84 1011 10 16 N/A
4:53 am 04:53 Cloudy 67 19.4 63 17.2 87 87 NNW 10 17 29.84 1011 10 16 N/A
5:53 am 05:53 Cloudy 68 20 63 17.2 84 84 NNW 8 13 29.85 1011 10 16 N/A
6:53 am 06:53 Cloudy 68 20 62 16.7 81 81 NNW 9 15 29.88 1012 10 16 N/A
7:12 am 07:12 Mostly Cloudy 68 20 63 17 83 83 NNW 8 13 29.91 1013 9 14 N/A
7:53 am 07:53 Mostly Cloudy 68 20 62 16.7 81 81 N 6 9 29.90 1012 10 16 N/A
8:11 am 08:11 Cloudy 68 20 62 16.7 81 81 N 6 9 29.91 1013 10 16 N/A
8:53 am 08:53 Cloudy 69 20.6 63 17.2 81 81 NNE 9 15 29.91 1013 10 16 N/A
9:53 am 09:53 Cloudy 70 21.1 64 17.8 82 82 NE 8 13 29.94 1014 10 16 N/A
10:53 am 10:53 Mostly Cloudy 73 22.8 65 18.3 76 76 NE 6 9 29.95 1014 10 16 N/A
11:53 am 11:53 Cloudy 72 22.2 65 18.3 79 79 NNE 8 13 29.97 1015 10 16 N/A
12:41 pm 12:41 Cloudy 74 23.3 66 18.9 76 76 NE 9 15 29.97 1015 10 16 N/A
12:53 pm 12:53 Cloudy 74 23.3 66 18.9 76 76 NNE 8 13 29.98 1015 10 16 N/A
1:53 pm 13:53 Mostly Cloudy 78 25.6 67 19.4 69 69 NE 8 13 29.98 1015 10 16 N/A
2:53 pm 14:53 Mostly Cloudy 80 26.7 65 18.3 60 60 E 10 17 29.96 1015 10 16 N/A
3:53 pm 15:53 Mostly Sunny 83 28.3 66 18.9 57 57 ENE 8 13 29.94 1014 10 16 N/A
4:53 pm 16:53 Mostly Cloudy 83 28.3 66 18.9 57 57 ESE 5 7 29.93 1014 10 16 N/A
5:53 pm 17:53 Partly Cloudy 83 28.3 64 17.8 53 53 NE 6 9 29.93 1014 10 16 N/A
6:53 pm 18:53 Partly Cloudy 84 28.9 61 16.1 46 46 NNE 12 19 29.94 1014 10 16 N/A
7:53 pm 19:53 Mostly Sunny 81 27.2 62 16.7 53 53 NE 7 11 29.96 1015 10 16 N/A
8:53 pm 20:53 Partly Cloudy 75 23.9 64 17.8 69 69 N N/A 29.98 1015 10 16 N/A
9:53 pm 21:53 Mostly Cloudy 74 23.3 64 17.8 71 71 N N/A 30.00 1016 10 16 N/A
10:53 pm 22:53 Mostly Cloudy 69 20.6 64 17.8 84 84 N N/A 30.04 1017 10 16 N/A
11:53 pm 23:53 Partly Cloudy 68 20 65 18.3 90 90 N N/A 30.04 1017 10 16 N/A

Powered by AerisWeather